Regional Weather Roundup
Issued by NWS Grand Forks, ND

Home | Current Version | Previous Version | Graphics & Text | Print | Product List | Glossary On
Versions: 1 2 3 4 5 6 7 8 9 10 11 12 13 14 15 16 17 18 19 20 21 22 23 24 25 26 27 28 29 30 31 32 33 34 35 36 37 38 39 40 41 42 43 44 45 46 47 48 49 50
000
ASUS43 KFGF 201710
RWRFGF
PRAIRIE TO PINES  WEATHER ROUNDUP
NATIONAL WEATHER SERVICE EASTERN NORTH DAKOTA/GRAND FORKS ND
1100 AM CST TUE FEB 20 2018

 **SATELLITE DATA USED TO AUGMENT SKY COVER AT AUTOMATED STATIONS**
 *****  WEATHER ACROSS EASTERN NORTH DAKOTA  *****

CITY           SKY/WX    TMP DP  RH WIND       PRES   REMARKS
GRAND FORKS    LGT SNOW   8   3  80 NW18      30.09F WCI -11
GRAND FRKS AFB LGT SNOW   7   1  78 N15       30.09F FOG     WCI -11
GRAND FRKS NWS   N/A      8   4  86 N10       30.06F WCI  -7
DEVILS LAKE    FAIR       4  -1  80 W13       30.09S WCI -13
FARGO          LGT SNOW   7   3  84 NW20      30.08R FOG     WCI -13
WAHPETON ARPT  CLOUDY     9   1  72 NW17G23   30.09R WCI -10
$$

 ***** WEATHER ACROSS CENTRAL AND WESTERN NORTH DAKOTA  *****

CITY           SKY/WX    TMP DP  RH WIND       PRES   REMARKS
BISMARCK       FAIR       9   0  67 NW10      30.14S WCI  -5
MINOT          FAIR       4  -4  69 SW14      30.09S WCI -14
JAMESTOWN      PTSUNNY    7   1  76 NW20      30.08R WCI -13
MINOT AFB      FAIR       4  -4  68 W15       30.07F WCI -14
GARRISON         N/A      3  -4  72 W14       30.09F WCI -15
WILLISTON      PTSUNNY    0  -7  72 W18       30.11S WCI -21
DICKINSON      CLOUDY     1  -4  79 W12       30.05S WCI -16
HETTINGER      CLOUDY    -3  -9  75 W9        30.10R WCI -19
$$

 *****  OTHER AIRPORT OBSERVATIONS IN OUR AREA  *****

CITY           SKY/WX    TMP DP  RH WIND       PRES   REMARKS
WALHALLA       LGT SNOW   7   7 100 NW8       30.10S WCI  -6
GRAFTON AIRPOR PTSUNNY    7   3  85 NW10      30.13S HAZE    WCI  -8
VALLEY CITY AR LGT RAIN   7   1  78 NW15G23   30.09R WCI -11
CANDO          CLOUDY     7   0  72 W12       30.09S WCI  -9
CAVALIER APRT    N/A      7   3  85 NW6       30.10F WCI  -3
GWINNER          N/A      9   1  72 NW17      30.09R WCI -10
SHEYENNE NWR     N/A      9   4  79 N14       29.95S WCI  -7
ROLLA          FAIR       5  -6  61 W13       30.03S WCI -12
 ***** THE ABOVE OBSERVATIONS ARE NON NWS ARE NOT QUALITY
       CONTROLLED AND MAY MIS-REPORT RAIN FOR SNOW...
$$

  *****  WEATHER ACROSS NORTHERN MINNESOTA  *****

CITY           SKY/WX    TMP DP  RH WIND       PRES   REMARKS
FLAG ISLAND    CLOUDY     3  -2  78 NW13      29.99S HAZE    WCI -14
WARROAD        LGT SNOW   7   1  78 NW14      30.01S WCI -10
ROSEAU         LGT SNOW   7   1  78 NW13      30.02S WCI  -9
HALLOCK        CLOUDY     7   1  78 NW9       30.09F HAZE    WCI  -7
THF RVR FALLS  LGT SNOW   5   1  83 NW17      30.03S VSB 3/4 WCI -14
BAUDETTE       LGT SNOW   5  -1  76 N13       29.95F WCI -12
WASKISH        LGT SNOW   7   1  78 NW7       29.96S WCI  -5
CROOKSTON      LGT SNOW   7   1  78 N22       30.07F VSB 1   WCI -14
STEPHEN NDAWN    N/A      7   1  78 NW10        N/A  WCI  -8
GREENBUSH NDAW   N/A      3   0  85 NW13        N/A  WCI -14
$$
  *****  WEATHER ACROSS CENTRAL AND WEST MINNESOTA  *****

CITY           SKY/WX    TMP DP  RH WIND       PRES   REMARKS
FOSSTON        LGT SNOW   7   0  72 NW13      30.00R WCI  -9
BEMIDJI        LGT SNOW   6   0  75 NW10      29.93F WCI  -9
PARK RAPIDS    LGT SNOW   9   2  73 NW10      29.92F WCI  -5
ELBOW LAKE     FAIR       7   1  77 W18       30.01R WCI -12
WADENA         LGT SNOW  10   3  72 NW10      29.94R WCI  -3
DETROIT LAKES  LGT SNOW   9   3  78 N17       30.00R WCI -10
MOORHEAD       CLOUDY     7   1  78 N16       30.08R HAZE    WCI -11
FERGUS FALLS   FAIR       7   1  78 NW16      30.04R HAZE    WCI -11
MORRIS MN      CLOUDY     9   1  72 NW20      30.03R HAZE    WCI -11
STAPLES        FLURRIES  10   3  72 NW8       29.94R WCI  -1
$$
  *****  WEATHER ELSEWHERE ACROSS MINNESOTA  *****

CITY           SKY/WX    TMP DP  RH WIND       PRES   REMARKS
DULUTH         LGT SNOW   8   5  87 N12       29.84F WCI  -7
INTRNTL FALLS  LGT SNOW   5   0  79 N7        29.94S WCI  -7
ELY            LGT SNOW   3  -2  78 N3        29.89R
CLOQUET        LGT SNOW   9   3  78 N15       29.84F WCI  -8
WHEATON        CLOUDY     7   0  72 NW18      30.09R HAZE    WCI -12
BRAINERD       LGT SNOW  12   3  67 N8        29.92S WCI   0
HIBBING        LGT SNOW   5   0  79 N8        29.88F WCI  -8
ALEXANDRIA     CLOUDY    11   4  73 NW12      29.96R WCI  -3
SAINT CLOUD    CLOUDY    13   6  74 NW14      29.94R WCI  -2
MINNEAPOLIS    CLOUDY    19  16  88 W9        29.92R WCI   8
$$

  *****  WEATHER ACROSS SOUTH DAKOTA  *****

CITY           SKY/WX    TMP DP  RH WIND       PRES   REMARKS
SIOUX FALLS    FAIR       8   1  73 NW17      30.05F WCI -10
BROOKINGS      FLURRIES   6   0  76 NW17      30.03R WCI -13
WATERTOWN      PTSUNNY    6   0  76 NW17      30.04R WCI -13
HURON          CLOUDY     8   2  76 NW21      30.15R WCI -12
SISSETON         N/A      8   2  76 NW23G29   30.07R WCI -13
ABERDEEN       PTSUNNY    8   1  73 NW17      30.14R WCI -10
MITCHELL       CLOUDY     8   2  76 NW18      30.16R WCI -11
PIERRE         FAIR       6   1  80 NW16      30.18R WCI -12
MOBRIDGE       FLURRIES   9   1  70 NW15      30.11R WCI  -8
RAPID CITY     FAIR       2  -5  72 CALM      30.09R
$$

  *****  SOME WEATHER IN NEARBY STATES *****

CITY           SKY/WX    TMP DP  RH WIND       PRES   REMARKS
GLASGOW MT     FAIR      -9 -14  78 W5        30.12R WCI -20
GREAT FALLS MT FAIR      -1 -11  62 SW17      30.02R WCI -22
CHEYENNE WY    FAIR       2  -3  80 CALM      29.85R
SCOTTSBLUFF NE FAIR       1  -8  66 W7        30.06R WCI -12
OMAHA NE       CLOUDY    17  11  77 NW20      30.10R WCI   1
DES MOINES IA  CLOUDY    25  20  81 NW20      29.99R WCI  11
DAVENPORT IA   RAIN      36  34  92 W8        29.91R FOG
CHICAGO IL     CLOUDY    64  58  80 S12G23    29.83F
EAU CLAIRE WI  CLOUDY    22  20  92 W8        29.84R FOG     WCI  12
LA CROSSE WI   CLOUDY    30  28  92 W13       29.88R FOG     WCI  20
$$

  *****  SOME NATIONAL WEATHER *****

CITY           SKY/WX    TMP DP  RH WIND       PRES   REMARKS
LA GUARDIA NY  PTSUNNY   58  51  78 SW16      30.31F
RALEIGH NC     FOG       60  60 100 SW5       30.47F VSB 1/4
ATLANTA GA     CLOUDY    66  65  96 SE8       30.39F
NEW ORLEANS LA PTSUNNY   81  71  71 SE24G32   30.18S
OKLAHOMA CITY  LGT SNOW  28  27  96 N22       30.01R FOG     WCI  14
ALBUQUERQUE NM PTSUNNY   33  15  47 NW9       30.00R
SALT LAKE CITY PTSUNNY   23  12  62 SW6       30.06R WCI  16
LOS ANGELES CA FAIR      51  15  23 E6        30.16R
BOISE ID       FAIR      16   4  59 CALM      30.18R
SEATTLE WA     CLOUDY    32  19  58 SE7       30.17S
$$

*** WEATHER ACROSS MANITOBA...SASKATCHEWAN AND ONTARIO ***
                ***ONTARIO***

CITY           SKY/WX    TMP DP  RH WIND       PRES   REMARKS
GERALDTON      NOT AVBL
THUNDER BAY    NOT AVBL
SIOUX LOOKOUT  NOT AVBL
TORONTO        NOT AVBL
BIG TROUT LK   NOT AVBL
PICKLE LAKE    NOT AVBL
DRYDEN         NOT AVBL
KENORA         NOT AVBL
$$
                *** MANITOBA***

CITY           SKY/WX    TMP DP  RH WIND       PRES   REMARKS
BRANDON        NOT AVBL
DAUPHIN        NOT AVBL
ISLAND LAKE    NOT AVBL
PILOT MOUND    NOT AVBL
THE PAS        NOT AVBL
THOMPSON       NOT AVBL
WINNIPEG       NOT AVBL
$$
                ***SASKATCHEWAN***

CITY           SKY/WX    TMP DP  RH WIND       PRES   REMARKS
ESTEVAN        NOT AVBL
KINDERSLEY     NOT AVBL
LLOYDMINSTER   NOT AVBL
PRINCE ALBERT  NOT AVBL
REGINA         NOT AVBL
YORKTON        NOT AVBL
N. BATTLEFORD  NOT AVBL
LA RONGE       NOT AVBL
SASKATOON      NOT AVBL
SWIFT CURRENT  NOT AVBL
$$
NOTE: THESE ARE AUTOMATED STATIONS WITH LIMITED QUALITY CONTROL
      "FAIR" INDICATES FEW OR NO CLOUDS BELOW 12,000 FEET WITH NO
      SIGNIFICANT WEATHER AND/OR OBSTRUCTIONS TO VISIBILITY.
      SKY/WX - SKY CONDITION AND SIGNIFICANT WEATHER.
      TMP - AIR TEMPERATURE.    DP   - DEWPOINT TEMPERATURE.
      RH  - RELATIVE HUMIDITY.  PRES - PRESSURE.
      HX  - HEAT INDEX.         WCI  - WIND CHILL INDEX.
$



USA.gov is the U.S. government's official web portal to all federal, state and local government web resources and services.